CW1172 Weather Reports


Display with metric or nautical units.
time (UTC)temp
F
wind
direction
speed
MPH
gust
MPH
rain 1hr
in
rain 24hr
in
rain mn
in
humidity
%
barometer
mb
20260831230025 58 124 0.0 0.0 0.00 0.00 0.00 92 1005.8
20260831224525 58 126 0.0 0.0 0.00 0.00 0.00 92 1005.7
20260831223026 58 125 0.0 0.0 0.00 0.00 0.00 92 1005.6
20260831221522 58 125 0.0 0.0 0.00 0.00 0.00 92 1005.6
20260831220022 58 125 0.0 0.0 0.00 0.00 0.00 92 1005.6
20260831214525 59 125 0.0 0.0 0.00 0.00 0.00 92 1005.6
20260831213022 59 125 0.0 0.0 0.00 0.00 0.00 92 1005.6
20260831211519 59 126 0.0 0.0 0.00 0.00 0.00 92 1005.6
20260831210021 59 126 0.0 0.0 0.00 0.00 0.00 92 1005.6
20260831204520 59 126 0.0 0.0 0.00 0.00 0.00 91 1005.5
20260831203020 59 125 0.0 0.0 0.00 0.00 0.00 91 1005.5
20260831201521 59 125 0.0 0.0 0.00 0.00 0.00 91 1005.4
20260831200033 59 125 0.0 0.0 0.00 0.00 0.00 91 1005.5
20260831194525 59 126 0.0 0.0 0.00 0.00 0.00 91 1005.6
20260831193018 59 127 0.0 0.0 0.00 0.00 0.00 91 1005.5
20260831191521 59 126 0.0 0.0 0.00 0.00 0.00 91 1005.4
20260831190031 60 133 0.0 0.0 0.00 0.00 0.00 91 1005.2
20260831184519 60 144 0.0 0.0 0.00 0.00 0.00 90 1005.3
20260831183019 60 143 0.0 0.0 0.00 0.00 0.00 90 1005.3
20260831181526 60 143 0.0 0.0 0.00 0.00 0.00 90 1005.1
20260831180017 61 143 0.0 0.0 0.00 0.00 0.00 90 1005.1
20260831174517 61 144 0.0 0.0 0.00 0.00 0.00 89 1005.1
20260831173017 61 144 0.0 0.0 0.00 0.00 0.00 89 1005.1
20260831171517 61 144 0.0 0.0 0.00 0.00 0.00 88 1005.1
20260831170017 61 169 0.0 0.0 0.00 0.00 0.00 88 1005.1
20260831164519 61 171 0.0 0.0 0.00 0.00 0.00 87 1005.1
20260831163019 62 175 0.0 0.0 0.00 0.00 0.00 84 1005.1
20260831161515 63 176 0.0 0.0 0.00 0.00 0.00 81 1005.1
20260831160015 64 152 0.0 0.0 0.00 0.00 0.00 78 1005.0
20260831154515 65 165 0.0 0.0 0.00 0.00 0.00 76 1004.8
20260831153013 67 180 0.0 0.0 0.00 0.00 0.00 76 1004.8
20260831151514 69 226 0.0 0.0 0.00 0.00 0.00 73 1004.7
20260831150014 69 203 0.0 0.0 0.00 0.00 0.00 71 1004.7
20260831144513 70 194 0.0 0.0 0.00 0.00 0.00 70 1004.8
20260831143015 68 360 0.0 0.0 0.00 0.00 0.00 70 1004.8
20260831141508 68 132 0.0 0.0 0.00 0.00 0.00 72 1005.0
20260831140024 67 200 0.0 0.0 0.00 0.00 0.00 71 1005.1
20260831134509 68 236 0.0 0.0 0.00 0.00 0.00 70 1005.1
20260831133008 67 191 0.0 0.0 0.00 0.00 0.00 71 1005.3
20260831131507 66 192 0.0 0.0 0.00 0.00 0.00 75 1005.4
20260831130008 65 360 0.0 0.0 0.00 0.00 0.00 76 1005.4
20260831124509 65 200 0.0 0.0 0.00 0.00 0.00 75 1005.4
20260831123007 66 207 0.0 0.0 0.00 0.00 0.00 73 1005.4
20260831121509 66 244 0.0 0.0 0.00 0.00 0.00 73 1005.3
20260831120015 65 203 0.0 0.0 0.00 0.00 0.00 75 1005.4
20260831114508 67 198 0.0 0.0 0.00 0.00 0.00 73 1005.4
20260831113006 67 205 0.0 0.0 0.00 0.00 0.00 74 1005.3
20260831111506 66 239 0.0 0.0 0.00 0.00 0.00 74 1005.3
20260831110005 65 161 0.0 0.0 0.00 0.00 0.00 77 1005.4
20260831104509 64 194 0.0 0.0 0.00 0.00 0.00 78 1005.4
20260831103004 65 225 0.0 0.0 0.00 0.00 0.00 75 1005.5
20260831101503 65 284 0.0 0.0 0.00 0.00 0.00 78 1005.4
20260831100109 63 360 0.0 0.0 0.00 0.00 0.00 79 1005.4
20260831094557 63 230 0.0 0.0 0.00 0.00 0.00 79 1005.3
20260831093058 63 207 0.0 0.0 0.00 0.00 0.00 78 1005.2
20260831091554 62 214 0.0 0.0 0.00 0.00 0.00 81 1005.1
20260831084559 61 360 0.0 0.0 0.00 0.00 0.00 81 1005.2
20260831083052 61 211 0.0 0.0 0.00 0.00 0.00 81 1005.2
20260831081551 61 225 0.0 0.0 0.00 0.00 0.00 82 1005.1
20260831080052 61 360 0.0 0.0 0.00 0.00 0.00 83 1005.1
20260831074552 60 260 0.0 0.0 0.00 0.00 0.00 83 1005.1
20260831073050 60 234 0.0 0.0 0.00 0.00 0.00 84 1005.0
20260831071549 60 188 0.0 0.0 0.00 0.00 0.00 85 1004.9
20260831070055 60 198 0.0 0.0 0.00 0.00 0.00 85 1004.9
20260831064547 60 203 0.0 0.0 0.00 0.00 0.00 85 1005.0
20260831063050 60 257 0.0 0.0 0.00 0.00 0.00 85 1004.9
20260831061544 59 198 0.0 0.0 0.00 0.00 0.00 85 1004.7
20260831060042 59 257 0.0 0.0 0.00 0.00 0.00 85 1004.7
20260831054544 59 229 0.0 0.0 0.00 0.00 0.00 86 1004.6
20260831053051 59 190 0.0 0.0 0.00 0.00 0.00 87 1004.5
20260831051543 59 225 0.0 0.0 0.00 0.00 0.00 87 1004.4
20260831050044 59 360 0.0 0.0 0.00 0.00 0.00 88 1004.4
20260831044539 59 184 0.0 0.0 0.00 0.00 0.00 88 1004.4
20260831043041 59 202 0.0 0.0 0.00 0.00 0.00 88 1004.4
20260831041539 59 236 0.0 0.0 0.00 0.00 0.00 87 1004.3
20260831040038 59 206 0.0 0.0 0.00 0.00 0.00 87 1004.3
20260831034541 59 234 0.0 0.0 0.00 0.00 0.00 87 1004.3
20260831033057 59 223 0.0 0.0 0.00 0.00 0.00 87 1004.3
20260831031536 59 360 0.0 0.0 0.00 0.00 0.00 87 1004.2
20260831030036 59 192 0.0 0.0 0.00 0.00 0.00 88 1004.2
20260831024538 59 194 0.0 0.0 0.00 0.00 0.00 88 1004.0
20260831023035 59 256 0.0 0.0 0.00 0.00 0.00 88 1004.1
20260831021535 59 223 0.0 0.0 0.00 0.00 0.00 87 1004.1
20260831020040 59 230 0.0 0.0 0.00 0.00 0.00 87 1004.1
20260831014535 59 227 0.0 0.0 0.00 0.00 0.00 87 1004.2
20260831013034 59 219 0.0 0.0 0.00 0.00 0.00 89 1004.0
20260831011542 59 360 0.0 0.0 0.00 0.00 0.00 89 1004.1
20260831010033 59 248 0.0 0.0 0.00 0.00 0.00 89 1004.0
20260831004534 59 248 0.0 0.0 0.00 0.00 0.00 89 1004.1
20260831003036 59 237 0.0 0.0 0.00 0.00 0.00 90 1004.3
20260831001532 59 229 0.0 0.0 0.00 0.00 0.00 90 1004.2
20260831000037 59 223 0.0 0.0 0.00 0.00 0.00 90 1004.1
20260830234537 59 200 0.0 0.0 0.00 0.00 0.00 90 1004.1
20260830233030 59 169 0.0 0.0 0.00 0.00 0.00 90 1004.1
20260830231529 59 208 0.0 0.0 0.00 0.00 0.00 91 1003.9